Time,TemperatureF,DewpointF,PressureIn,WindDirection,WindDirectionDegrees,WindSpeedMPH,WindSpeedGustMPH,Humidity,HourlyPrecipIn,Conditions,Clouds,dailyrainin,SoftwareType,DateUTC
2013-08-28 00:01:00,78.5,73.0,28.96,NNE,22,1.4,3.0,84,0.00,,,0.00,Rainwise IP-100,2013-08-28 05:01:00,
2013-08-28 00:06:00,78.4,73.0,28.96,NNE,22,2.8,3.0,84,0.00,,,0.00,Rainwise IP-100,2013-08-28 05:06:00,
2013-08-28 00:11:00,78.3,73.0,28.96,NNE,22,3.0,3.0,85,0.00,,,0.00,Rainwise IP-100,2013-08-28 05:11:00,
2013-08-28 00:16:00,78.2,73.0,28.96,NNE,22,2.8,4.0,85,0.00,,,0.00,Rainwise IP-100,2013-08-28 05:16:00,
2013-08-28 00:21:00,78.1,73.0,28.96,NE,45,3.7,4.0,85,0.00,,,0.00,Rainwise IP-100,2013-08-28 05:21:00,
2013-08-28 00:26:00,78.1,72.0,28.96,NE,45,3.3,4.0,84,0.00,,,0.00,Rainwise IP-100,2013-08-28 05:26:00,
2013-08-28 00:31:00,78.0,72.0,28.96,NNE,22,2.3,3.0,84,0.00,,,0.00,Rainwise IP-100,2013-08-28 05:31:00,
2013-08-28 00:36:00,77.9,72.0,28.96,NE,45,3.7,3.7,84,0.00,,,0.00,Rainwise IP-100,2013-08-28 05:36:00,
2013-08-28 00:41:00,77.8,73.0,28.97,ENE,67,2.1,4.0,85,0.00,,,0.00,Rainwise IP-100,2013-08-28 05:41:00,
2013-08-28 00:46:00,77.8,73.0,28.96,NNE,22,2.6,3.0,85,0.00,,,0.00,Rainwise IP-100,2013-08-28 05:46:00,
2013-08-28 00:51:00,77.7,73.0,28.96,NE,45,3.0,3.0,86,0.00,,,0.00,Rainwise IP-100,2013-08-28 05:51:00,
2013-08-28 00:56:00,77.6,73.0,28.96,NNE,22,3.3,4.0,86,0.00,,,0.00,Rainwise IP-100,2013-08-28 05:56:00,
2013-08-28 01:01:00,77.5,73.0,28.96,NNE,22,2.6,4.0,87,0.00,,,0.00,Rainwise IP-100,2013-08-28 06:01:00,
2013-08-28 01:06:00,77.6,73.0,28.96,NNE,22,2.6,5.0,87,0.00,,,0.00,Rainwise IP-100,2013-08-28 06:06:00,
2013-08-28 01:11:00,77.5,73.0,28.96,North,360,2.6,4.0,87,0.00,,,0.00,Rainwise IP-100,2013-08-28 06:11:00,
2013-08-28 01:16:00,77.3,73.0,28.96,NNE,22,1.6,4.0,87,0.00,,,0.00,Rainwise IP-100,2013-08-28 06:16:00,
2013-08-28 01:21:00,77.1,73.0,28.96,NNE,22,1.6,4.0,87,0.00,,,0.00,Rainwise IP-100,2013-08-28 06:21:00,
2013-08-28 01:26:00,77.0,73.0,28.96,NNE,22,3.3,4.0,88,0.00,,,0.00,Rainwise IP-100,2013-08-28 06:26:00,
2013-08-28 01:31:00,76.9,73.0,28.96,North,360,1.2,4.0,88,0.00,,,0.00,Rainwise IP-100,2013-08-28 06:31:00,
2013-08-28 01:36:00,76.8,73.0,28.96,North,360,2.3,3.0,88,0.00,,,0.00,Rainwise IP-100,2013-08-28 06:36:00,
2013-08-28 01:41:00,76.6,72.0,28.97,NNE,22,0.0,3.0,88,0.00,,,0.00,Rainwise IP-100,2013-08-28 06:41:00,
2013-08-28 01:46:00,76.4,73.0,28.96,NNE,22,1.9,2.0,89,0.00,,,0.00,Rainwise IP-100,2013-08-28 06:46:00,
2013-08-28 01:51:00,76.4,73.0,28.96,ENE,67,2.6,3.0,89,0.00,,,0.00,Rainwise IP-100,2013-08-28 06:51:00,
2013-08-28 01:56:00,76.4,73.0,28.96,East,90,2.3,3.0,89,0.00,,,0.00,Rainwise IP-100,2013-08-28 06:56:00,
2013-08-28 02:01:00,76.3,72.0,28.96,ENE,67,1.9,2.0,89,0.00,,,0.00,Rainwise IP-100,2013-08-28 07:01:00,
2013-08-28 02:06:00,76.3,73.0,28.95,NE,45,0.0,2.0,90,0.00,,,0.00,Rainwise IP-100,2013-08-28 07:06:00,
2013-08-28 02:11:00,76.2,73.0,28.96,NE,45,2.6,3.0,91,0.00,,,0.00,Rainwise IP-100,2013-08-28 07:11:00,
2013-08-28 02:16:00,76.0,73.0,28.96,NE,45,2.3,3.0,91,0.00,,,0.00,Rainwise IP-100,2013-08-28 07:16:00,
2013-08-28 02:22:00,75.9,73.0,28.96,NE,45,2.6,3.0,91,0.00,,,0.00,Rainwise IP-100,2013-08-28 07:22:00,
2013-08-28 02:27:00,75.8,72.0,28.96,North,360,2.8,3.0,91,0.00,,,0.00,Rainwise IP-100,2013-08-28 07:27:00,
2013-08-28 02:32:00,75.7,72.0,28.97,NNE,22,2.8,4.0,91,0.00,,,0.00,Rainwise IP-100,2013-08-28 07:32:00,
2013-08-28 02:37:00,75.6,72.0,28.96,North,360,3.0,4.0,91,0.00,,,0.00,Rainwise IP-100,2013-08-28 07:37:00,
2013-08-28 02:42:00,75.6,72.0,28.96,NNE,22,3.0,5.0,91,0.00,,,0.00,Rainwise IP-100,2013-08-28 07:42:00,
2013-08-28 02:47:00,75.6,72.0,28.96,NNE,22,1.4,4.0,91,0.00,,,0.00,Rainwise IP-100,2013-08-28 07:47:00,
2013-08-28 02:52:00,75.7,72.0,28.96,ENE,67,3.0,4.0,91,0.00,,,0.00,Rainwise IP-100,2013-08-28 07:52:00,
2013-08-28 02:57:00,75.7,72.0,28.96,NE,45,2.6,4.0,91,0.00,,,0.00,Rainwise IP-100,2013-08-28 07:57:00,
2013-08-28 03:02:00,75.5,73.0,28.96,NNE,22,4.2,4.2,92,0.00,,,0.00,Rainwise IP-100,2013-08-28 08:02:00,
2013-08-28 03:07:00,75.3,72.0,28.97,NNE,22,3.0,4.0,92,0.00,,,0.00,Rainwise IP-100,2013-08-28 08:07:00,
2013-08-28 03:12:00,75.3,72.0,28.96,NE,45,1.9,4.0,92,0.00,,,0.00,Rainwise IP-100,2013-08-28 08:12:00,
2013-08-28 03:17:00,75.3,72.0,28.97,ENE,67,4.0,4.0,92,0.00,,,0.00,Rainwise IP-100,2013-08-28 08:17:00,
2013-08-28 03:22:00,75.4,73.0,28.97,ENE,67,3.3,4.0,92,0.00,,,0.00,Rainwise IP-100,2013-08-28 08:22:00,
2013-08-28 03:27:00,75.3,72.0,28.97,NE,45,3.3,4.0,92,0.00,,,0.00,Rainwise IP-100,2013-08-28 08:27:00,
2013-08-28 03:32:00,75.2,72.0,28.97,ENE,67,2.3,4.0,92,0.00,,,0.00,Rainwise IP-100,2013-08-28 08:32:00,
2013-08-28 03:37:00,75.2,72.0,28.97,NE,45,0.0,3.0,92,0.00,,,0.00,Rainwise IP-100,2013-08-28 08:37:00,
2013-08-28 03:42:00,75.1,72.0,28.97,ENE,67,1.9,2.0,92,0.00,,,0.00,Rainwise IP-100,2013-08-28 08:42:00,
2013-08-28 03:47:00,74.9,73.0,28.97,NNE,22,1.6,2.0,93,0.00,,,0.00,Rainwise IP-100,2013-08-28 08:47:00,
2013-08-28 03:52:00,74.7,72.0,28.97,ENE,67,0.0,2.0,93,0.00,,,0.00,Rainwise IP-100,2013-08-28 08:52:00,
2013-08-28 03:57:00,74.6,72.0,28.98,ENE,67,2.3,2.3,93,0.00,,,0.00,Rainwise IP-100,2013-08-28 08:57:00,
2013-08-28 04:02:00,74.5,73.0,28.97,NE,45,1.4,2.0,94,0.00,,,0.00,Rainwise IP-100,2013-08-28 09:02:00,
2013-08-28 04:07:00,74.4,72.0,28.97,NE,45,1.9,3.0,94,0.00,,,0.00,Rainwise IP-100,2013-08-28 09:07:00,
2013-08-28 04:12:00,74.4,72.0,28.97,NE,45,3.0,3.0,94,0.00,,,0.00,Rainwise IP-100,2013-08-28 09:12:00,
2013-08-28 04:17:00,74.3,72.0,28.97,NE,45,2.6,4.0,94,0.00,,,0.00,Rainwise IP-100,2013-08-28 09:17:00,
2013-08-28 04:22:00,74.2,72.0,28.97,NNE,22,2.8,3.0,94,0.00,,,0.00,Rainwise IP-100,2013-08-28 09:22:00,
2013-08-28 04:27:00,74.2,72.0,28.97,NE,45,1.4,4.0,94,0.00,,,0.00,Rainwise IP-100,2013-08-28 09:27:00,
2013-08-28 04:32:00,74.2,72.0,28.97,NE,45,2.6,3.0,94,0.00,,,0.00,Rainwise IP-100,2013-08-28 09:32:00,
2013-08-28 04:37:00,74.1,72.0,28.97,NE,45,2.1,4.0,94,0.00,,,0.00,Rainwise IP-100,2013-08-28 09:37:00,
2013-08-28 04:42:00,74.0,72.0,28.98,NNE,22,3.3,3.3,95,0.00,,,0.00,Rainwise IP-100,2013-08-28 09:42:00,
2013-08-28 04:47:00,73.8,72.0,28.98,NE,45,2.8,3.0,95,0.00,,,0.00,Rainwise IP-100,2013-08-28 09:47:00,
2013-08-28 04:52:00,73.6,72.0,28.98,NNE,22,2.3,3.0,95,0.00,,,0.00,Rainwise IP-100,2013-08-28 09:52:00,
2013-08-28 04:57:00,73.5,72.0,28.98,NNE,22,2.8,3.0,95,0.00,,,0.00,Rainwise IP-100,2013-08-28 09:57:00,
2013-08-28 05:02:00,73.4,72.0,28.98,NE,45,1.9,4.0,95,0.00,,,0.00,Rainwise IP-100,2013-08-28 10:02:00,
2013-08-28 05:07:00,73.3,72.0,28.98,NE,45,2.1,4.0,95,0.00,,,0.00,Rainwise IP-100,2013-08-28 10:07:00,
2013-08-28 05:12:00,73.3,72.0,28.98,NE,45,2.6,4.0,95,0.00,,,0.00,Rainwise IP-100,2013-08-28 10:12:00,
2013-08-28 05:17:00,73.3,72.0,28.98,NNW,337,0.0,4.0,95,0.00,,,0.00,Rainwise IP-100,2013-08-28 10:17:00,
2013-08-28 05:22:00,73.3,72.0,28.98,NNE,22,3.0,5.0,95,0.00,,,0.00,Rainwise IP-100,2013-08-28 10:22:00,
2013-08-28 05:27:00,73.2,72.0,28.98,NNE,22,2.6,4.0,95,0.00,,,0.00,Rainwise IP-100,2013-08-28 10:27:00,
2013-08-28 05:32:00,73.0,71.0,28.98,North,360,2.1,4.0,95,0.00,,,0.00,Rainwise IP-100,2013-08-28 10:32:00,
2013-08-28 05:37:00,72.8,71.0,28.98,NE,45,1.2,4.0,95,0.00,,,0.00,Rainwise IP-100,2013-08-28 10:37:00,
2013-08-28 05:42:00,72.7,71.0,28.98,North,360,1.4,3.0,95,0.00,,,0.00,Rainwise IP-100,2013-08-28 10:42:00,
2013-08-28 05:47:00,72.6,71.0,28.98,NNW,337,1.9,2.0,95,0.00,,,0.00,Rainwise IP-100,2013-08-28 10:47:00,
2013-08-28 05:52:00,72.5,71.0,28.99,North,360,0.0,2.0,95,0.00,,,0.00,Rainwise IP-100,2013-08-28 10:52:00,
2013-08-28 05:57:00,72.5,71.0,28.98,North,360,2.1,3.0,96,0.00,,,0.00,Rainwise IP-100,2013-08-28 10:57:00,
2013-08-28 06:02:00,72.3,71.0,28.99,North,360,0.0,3.0,96,0.00,,,0.00,Rainwise IP-100,2013-08-28 11:02:00,
2013-08-28 06:07:00,72.2,71.0,28.99,NE,45,0.0,2.0,96,0.00,,,0.00,Rainwise IP-100,2013-08-28 11:07:00,
2013-08-28 06:12:00,72.3,71.0,28.99,NNE,22,1.4,2.0,96,0.00,,,0.00,Rainwise IP-100,2013-08-28 11:12:00,
2013-08-28 06:17:00,72.2,71.0,28.99,NE,45,0.0,4.0,96,0.00,,,0.00,Rainwise IP-100,2013-08-28 11:17:00,
2013-08-28 06:22:00,72.1,71.0,28.99,NNE,22,1.9,3.0,96,0.00,,,0.00,Rainwise IP-100,2013-08-28 11:22:00,
2013-08-28 06:27:00,72.2,71.0,28.99,NNW,337,1.9,4.0,96,0.00,,,0.00,Rainwise IP-100,2013-08-28 11:27:00,
2013-08-28 06:32:00,72.2,71.0,29.00,NE,45,0.0,3.0,96,0.00,,,0.00,Rainwise IP-100,2013-08-28 11:32:00,
2013-08-28 06:37:00,72.0,71.0,29.00,NE,45,1.9,3.0,97,0.00,,,0.00,Rainwise IP-100,2013-08-28 11:37:00,
2013-08-28 06:42:00,72.1,71.0,29.00,NE,45,4.0,4.0,97,0.00,,,0.00,Rainwise IP-100,2013-08-28 11:42:00,
2013-08-28 06:47:00,72.3,71.0,29.00,North,360,2.3,4.0,97,0.00,,,0.00,Rainwise IP-100,2013-08-28 11:47:00,
2013-08-28 06:52:00,72.4,71.0,29.00,NNE,22,2.6,4.0,97,0.00,,,0.00,Rainwise IP-100,2013-08-28 11:52:00,
2013-08-28 06:57:00,72.5,72.0,29.00,NE,45,3.5,5.0,97,0.00,,,0.00,Rainwise IP-100,2013-08-28 11:57:00,
2013-08-28 07:02:00,72.7,71.0,29.00,ENE,67,4.0,5.0,96,0.00,,,0.00,Rainwise IP-100,2013-08-28 12:02:00,
2013-08-28 07:07:00,73.0,72.0,29.01,NE,45,3.7,4.0,96,0.00,,,0.00,Rainwise IP-100,2013-08-28 12:07:00,
2013-08-28 07:12:00,73.3,72.0,29.01,ENE,67,2.6,5.0,95,0.00,,,0.00,Rainwise IP-100,2013-08-28 12:12:00,
2013-08-28 07:17:00,73.5,72.0,29.01,NE,45,1.6,4.0,95,0.00,,,0.00,Rainwise IP-100,2013-08-28 12:17:00,
2013-08-28 07:22:00,73.5,72.0,29.01,NNE,22,2.3,4.0,94,0.00,,,0.00,Rainwise IP-100,2013-08-28 12:22:00,
2013-08-28 07:27:00,73.4,71.0,29.01,East,90,4.0,5.0,93,0.00,,,0.00,Rainwise IP-100,2013-08-28 12:27:00,
2013-08-28 07:32:00,73.3,71.0,29.01,East,90,4.2,7.0,93,0.00,,,0.00,Rainwise IP-100,2013-08-28 12:32:00,
2013-08-28 07:37:00,73.2,71.0,29.01,NE,45,1.9,6.0,93,0.00,,,0.00,Rainwise IP-100,2013-08-28 12:37:00,
2013-08-28 07:42:00,73.4,71.0,29.01,NE,45,3.0,5.0,93,0.00,,,0.00,Rainwise IP-100,2013-08-28 12:42:00,
2013-08-28 07:47:00,73.5,72.0,29.01,East,90,0.0,5.0,94,0.00,,,0.00,Rainwise IP-100,2013-08-28 12:47:00,
2013-08-28 07:52:00,73.5,72.0,29.01,ENE,67,5.1,5.1,94,0.00,,,0.00,Rainwise IP-100,2013-08-28 12:52:00,
2013-08-28 07:57:00,73.5,72.0,29.01,East,90,2.8,5.0,94,0.00,,,0.00,Rainwise IP-100,2013-08-28 12:57:00,
2013-08-28 08:02:00,73.5,72.0,29.01,ENE,67,4.0,6.0,94,0.00,,,0.00,Rainwise IP-100,2013-08-28 13:02:00,
2013-08-28 08:07:00,73.6,72.0,29.01,ENE,67,5.1,6.0,95,0.00,,,0.00,Rainwise IP-100,2013-08-28 13:07:00,
2013-08-28 08:12:00,73.6,72.0,29.02,ESE,112,2.3,6.0,95,0.00,,,0.00,Rainwise IP-100,2013-08-28 13:12:00,
2013-08-28 08:17:00,73.6,72.0,29.01,East,90,4.4,7.0,95,0.00,,,0.00,Rainwise IP-100,2013-08-28 13:17:00,
2013-08-28 08:22:00,73.6,72.0,29.01,ESE,112,3.7,8.0,95,0.00,,,0.00,Rainwise IP-100,2013-08-28 13:22:00,
2013-08-28 08:27:00,73.8,72.0,29.02,East,90,4.0,7.0,94,0.00,,,0.00,Rainwise IP-100,2013-08-28 13:27:00,
2013-08-28 08:32:00,74.0,72.0,29.02,ESE,112,3.0,6.0,94,0.00,,,0.00,Rainwise IP-100,2013-08-28 13:32:00,
2013-08-28 08:37:00,74.1,72.0,29.01,East,90,4.7,6.0,94,0.00,,,0.00,Rainwise IP-100,2013-08-28 13:37:00,
2013-08-28 08:42:00,74.3,72.0,29.01,East,90,4.9,9.0,93,0.00,,,0.00,Rainwise IP-100,2013-08-28 13:42:00,
2013-08-28 08:47:00,74.4,72.0,29.02,East,90,5.4,7.0,92,0.00,,,0.00,Rainwise IP-100,2013-08-28 13:47:00,
2013-08-28 08:52:00,74.7,72.0,29.02,East,90,3.7,7.0,91,0.00,,,0.00,Rainwise IP-100,2013-08-28 13:52:00,
2013-08-28 08:57:00,74.8,71.0,29.02,ESE,112,3.5,7.0,90,0.00,,,0.00,Rainwise IP-100,2013-08-28 13:57:00,
2013-08-28 09:02:00,75.0,72.0,29.02,ESE,112,4.2,7.0,90,0.00,,,0.00,Rainwise IP-100,2013-08-28 14:02:00,
2013-08-28 09:07:00,75.5,72.0,29.02,East,90,3.5,5.0,89,0.00,,,0.00,Rainwise IP-100,2013-08-28 14:07:00,
2013-08-28 09:12:00,75.8,71.0,29.03,East,90,1.2,4.0,88,0.00,,,0.00,Rainwise IP-100,2013-08-28 14:12:00,
2013-08-28 09:17:00,76.1,71.0,29.03,East,90,2.8,3.0,87,0.00,,,0.00,Rainwise IP-100,2013-08-28 14:17:00,
2013-08-28 09:22:00,76.2,72.0,29.03,ENE,67,3.0,4.0,87,0.00,,,0.00,Rainwise IP-100,2013-08-28 14:22:00,
2013-08-28 09:27:00,76.1,71.0,29.03,ESE,112,1.6,5.0,87,0.00,,,0.00,Rainwise IP-100,2013-08-28 14:27:00,
2013-08-28 09:32:00,76.8,72.0,29.04,ENE,67,0.0,3.0,86,0.00,,,0.00,Rainwise IP-100,2013-08-28 14:32:00,
2013-08-28 09:37:00,77.6,73.0,29.04,East,90,1.4,3.0,85,0.00,,,0.00,Rainwise IP-100,2013-08-28 14:37:00,
2013-08-28 09:42:00,77.8,72.0,29.03,ESE,112,2.8,3.0,84,0.00,,,0.00,Rainwise IP-100,2013-08-28 14:42:00,
2013-08-28 09:47:00,77.7,72.0,29.03,East,90,2.1,3.0,83,0.00,,,0.00,Rainwise IP-100,2013-08-28 14:47:00,
2013-08-28 09:52:00,78.1,72.0,29.03,ESE,112,2.1,2.1,83,0.00,,,0.00,Rainwise IP-100,2013-08-28 14:52:00,
2013-08-28 09:57:00,78.4,72.0,29.04,East,90,2.1,4.0,82,0.00,,,0.00,Rainwise IP-100,2013-08-28 14:57:00,
2013-08-28 10:02:00,78.3,72.0,29.03,ENE,67,3.0,5.0,82,0.00,,,0.00,Rainwise IP-100,2013-08-28 15:02:00,
2013-08-28 10:07:00,78.5,72.0,29.04,NNE,22,1.9,5.0,82,0.00,,,0.00,Rainwise IP-100,2013-08-28 15:07:00,
2013-08-28 10:12:00,79.3,73.0,29.03,ESE,112,1.9,3.0,81,0.00,,,0.00,Rainwise IP-100,2013-08-28 15:12:00,
2013-08-28 10:17:00,80.1,73.0,29.03,East,90,1.6,2.0,80,0.00,,,0.00,Rainwise IP-100,2013-08-28 15:17:00,
2013-08-28 10:22:00,79.8,72.0,29.03,ESE,112,4.2,5.0,79,0.00,,,0.00,Rainwise IP-100,2013-08-28 15:22:00,
2013-08-28 10:27:00,79.3,72.0,29.03,East,90,1.4,4.0,79,0.00,,,0.00,Rainwise IP-100,2013-08-28 15:27:00,
2013-08-28 10:32:00,79.3,72.0,29.04,ENE,67,3.0,3.0,80,0.00,,,0.00,Rainwise IP-100,2013-08-28 15:32:00,
2013-08-28 10:37:00,79.9,73.0,29.04,ENE,67,2.6,4.0,80,0.00,,,0.00,Rainwise IP-100,2013-08-28 15:37:00,
2013-08-28 10:42:00,80.4,73.0,29.04,East,90,3.0,4.0,79,0.00,,,0.00,Rainwise IP-100,2013-08-28 15:42:00,
2013-08-28 10:47:00,80.2,73.0,29.04,ENE,67,3.5,4.0,79,0.00,,,0.00,Rainwise IP-100,2013-08-28 15:47:00,
2013-08-28 10:52:00,80.0,72.0,29.04,East,90,3.7,5.0,79,0.00,,,0.00,Rainwise IP-100,2013-08-28 15:52:00,
2013-08-28 10:57:00,80.1,72.0,29.04,East,90,3.7,5.0,79,0.00,,,0.00,Rainwise IP-100,2013-08-28 15:57:00,
2013-08-28 11:02:00,80.4,73.0,29.04,ENE,67,4.2,5.0,79,0.00,,,0.00,Rainwise IP-100,2013-08-28 16:02:00,
2013-08-28 11:07:00,80.5,73.0,29.04,East,90,5.4,6.0,79,0.00,,,0.00,Rainwise IP-100,2013-08-28 16:07:00,
2013-08-28 11:12:00,80.8,73.0,29.04,ESE,112,4.9,7.0,78,0.00,,,0.00,Rainwise IP-100,2013-08-28 16:12:00,
2013-08-28 11:17:00,81.5,74.0,29.05,ESE,112,1.9,7.0,78,0.00,,,0.00,Rainwise IP-100,2013-08-28 16:17:00,
2013-08-28 11:22:00,82.1,74.0,29.05,ESE,112,2.6,3.0,77,0.00,,,0.00,Rainwise IP-100,2013-08-28 16:22:00,
2013-08-28 11:27:00,82.5,73.0,29.05,NE,45,3.3,9.0,75,0.00,,,0.00,Rainwise IP-100,2013-08-28 16:27:00,
2013-08-28 11:32:00,82.5,73.0,29.05,East,90,2.8,10.0,73,0.00,,,0.00,Rainwise IP-100,2013-08-28 16:32:00,
2013-08-28 11:37:00,82.4,73.0,29.04,East,90,4.0,9.0,73,0.00,,,0.00,Rainwise IP-100,2013-08-28 16:37:00,
2013-08-28 11:42:00,82.4,72.0,29.05,East,90,5.4,8.0,72,0.00,,,0.00,Rainwise IP-100,2013-08-28 16:42:00,
2013-08-28 11:47:00,82.5,72.0,29.04,SE,135,4.7,9.0,72,0.00,,,0.00,Rainwise IP-100,2013-08-28 16:47:00,
2013-08-28 11:52:00,82.4,72.0,29.03,East,90,6.5,11.0,72,0.00,,,0.00,Rainwise IP-100,2013-08-28 16:52:00,
2013-08-28 11:57:00,82.4,72.0,29.03,ESE,112,4.9,10.0,72,0.00,,,0.00,Rainwise IP-100,2013-08-28 16:57:00,
2013-08-28 12:02:00,82.7,72.0,29.03,ESE,112,5.8,10.0,72,0.00,,,0.00,Rainwise IP-100,2013-08-28 17:02:00,
2013-08-28 12:07:00,82.8,72.0,29.03,East,90,5.4,10.0,72,0.00,,,0.00,Rainwise IP-100,2013-08-28 17:07:00,
2013-08-28 12:12:00,82.8,72.0,29.03,ESE,112,7.7,8.0,72,0.00,,,0.00,Rainwise IP-100,2013-08-28 17:12:00,
2013-08-28 12:17:00,83.1,72.0,29.03,ESE,112,7.9,9.0,71,0.00,,,0.00,Rainwise IP-100,2013-08-28 17:17:00,
2013-08-28 12:22:00,83.5,73.0,29.04,SSE,157,0.0,8.0,71,0.00,,,0.00,Rainwise IP-100,2013-08-28 17:22:00,
2013-08-28 12:27:00,84.1,73.0,29.04,SE,135,2.8,5.0,70,0.00,,,0.00,Rainwise IP-100,2013-08-28 17:27:00,
2013-08-28 12:32:00,84.3,72.0,29.04,East,90,2.6,9.0,68,0.00,,,0.00,Rainwise IP-100,2013-08-28 17:32:00,
2013-08-28 12:37:00,84.2,72.0,29.04,ESE,112,2.1,4.0,67,0.00,,,0.00,Rainwise IP-100,2013-08-28 17:37:00,
2013-08-28 12:42:00,84.6,72.0,29.05,SE,135,2.3,3.0,67,0.00,,,0.00,Rainwise IP-100,2013-08-28 17:42:00,
2013-08-28 12:47:00,84.6,71.0,29.05,East,90,5.1,6.0,64,0.00,,,0.00,Rainwise IP-100,2013-08-28 17:47:00,
2013-08-28 12:52:00,84.3,70.0,29.03,SE,135,3.7,7.0,62,0.00,,,0.00,Rainwise IP-100,2013-08-28 17:52:00,
2013-08-28 12:57:00,84.4,70.0,29.04,ENE,67,5.4,10.0,62,0.00,,,0.00,Rainwise IP-100,2013-08-28 17:57:00,
2013-08-28 13:02:00,84.3,70.0,29.04,East,90,6.3,8.0,63,0.00,,,0.00,Rainwise IP-100,2013-08-28 18:02:00,
2013-08-28 13:07:00,84.4,70.0,29.04,SE,135,3.7,8.0,63,0.00,,,0.00,Rainwise IP-100,2013-08-28 18:07:00,
2013-08-28 13:12:00,84.5,71.0,29.03,SE,135,3.0,7.0,63,0.00,,,0.00,Rainwise IP-100,2013-08-28 18:12:00,
2013-08-28 13:17:00,84.7,70.0,29.04,ESE,112,3.0,6.0,62,0.00,,,0.00,Rainwise IP-100,2013-08-28 18:17:00,
2013-08-28 13:22:00,84.7,70.0,29.04,ESE,112,3.5,5.0,62,0.00,,,0.00,Rainwise IP-100,2013-08-28 18:22:00,
2013-08-28 13:27:00,84.5,71.0,29.03,SE,135,2.8,6.0,63,0.00,,,0.00,Rainwise IP-100,2013-08-28 18:27:00,
2013-08-28 13:32:00,84.5,71.0,29.03,ENE,67,5.6,6.0,64,0.00,,,0.00,Rainwise IP-100,2013-08-28 18:32:00,
2013-08-28 13:37:00,84.6,71.0,29.04,ENE,67,2.3,6.0,64,0.00,,,0.00,Rainwise IP-100,2013-08-28 18:37:00,
2013-08-28 13:42:00,85.4,71.0,29.05,NNE,22,0.0,3.0,63,0.00,,,0.00,Rainwise IP-100,2013-08-28 18:42:00,
2013-08-28 13:47:00,86.6,71.0,29.05,NNE,22,0.0,1.0,61,0.00,,,0.00,Rainwise IP-100,2013-08-28 18:47:00,
2013-08-28 13:52:00,87.5,71.0,29.05,NE,45,1.4,1.4,59,0.00,,,0.00,Rainwise IP-100,2013-08-28 18:52:00,
2013-08-28 13:57:00,87.6,71.0,29.04,ENE,67,1.4,1.4,58,0.00,,,0.00,Rainwise IP-100,2013-08-28 18:57:00,
2013-08-28 14:02:00,86.5,70.0,29.03,East,90,3.7,5.0,58,0.00,,,0.00,Rainwise IP-100,2013-08-28 19:02:00,
2013-08-28 14:07:00,85.1,69.0,29.02,ENE,67,5.1,6.0,59,0.00,,,0.00,Rainwise IP-100,2013-08-28 19:07:00,
2013-08-28 14:12:00,84.7,70.0,29.03,East,90,3.5,5.0,62,0.00,,,0.00,Rainwise IP-100,2013-08-28 19:12:00,
2013-08-28 14:17:00,85.1,70.0,29.03,ESE,112,1.9,6.0,62,0.00,,,0.00,Rainwise IP-100,2013-08-28 19:17:00,
2013-08-28 14:22:00,85.7,71.0,29.03,ESE,112,0.0,3.0,61,0.00,,,0.00,Rainwise IP-100,2013-08-28 19:22:00,
2013-08-28 14:27:00,87.1,71.0,29.03,ESE,112,1.2,0.0,60,0.00,,,0.00,Rainwise IP-100,2013-08-28 19:27:00,
2013-08-28 14:32:00,87.7,71.0,29.02,ENE,67,2.3,2.3,58,0.00,,,0.00,Rainwise IP-100,2013-08-28 19:32:00,
2013-08-28 14:37:00,87.5,70.0,29.02,East,90,1.6,2.0,57,0.00,,,0.00,Rainwise IP-100,2013-08-28 19:37:00,
2013-08-28 14:42:00,87.7,71.0,29.02,NE,45,2.8,3.0,57,0.00,,,0.00,Rainwise IP-100,2013-08-28 19:42:00,
2013-08-28 14:47:00,87.6,70.0,29.03,NNE,22,0.0,4.0,57,0.00,,,0.00,Rainwise IP-100,2013-08-28 19:47:00,
2013-08-28 14:52:00,88.5,71.0,29.02,NE,45,0.0,1.0,57,0.00,,,0.00,Rainwise IP-100,2013-08-28 19:52:00,
2013-08-28 14:57:00,88.7,71.0,29.03,ENE,67,1.6,3.0,56,0.00,,,0.00,Rainwise IP-100,2013-08-28 19:57:00,
2013-08-28 15:02:00,87.8,71.0,29.02,NE,45,3.7,4.0,57,0.00,,,0.00,Rainwise IP-100,2013-08-28 20:02:00,
2013-08-28 15:07:00,86.7,70.0,29.02,East,90,6.8,7.0,58,0.00,,,0.00,Rainwise IP-100,2013-08-28 20:07:00,
2013-08-28 15:12:00,85.7,69.0,29.02,ENE,67,6.3,8.0,58,0.00,,,0.00,Rainwise IP-100,2013-08-28 20:12:00,
2013-08-28 15:17:00,85.5,69.0,29.02,East,90,4.9,7.0,59,0.00,,,0.00,Rainwise IP-100,2013-08-28 20:17:00,
2013-08-28 15:22:00,85.5,70.0,29.02,East,90,5.4,5.4,60,0.00,,,0.00,Rainwise IP-100,2013-08-28 20:22:00,
2013-08-28 15:27:00,85.6,70.0,29.02,NE,45,3.7,7.0,60,0.00,,,0.00,Rainwise IP-100,2013-08-28 20:27:00,
2013-08-28 15:32:00,85.4,70.0,29.01,NE,45,2.6,4.0,61,0.00,,,0.00,Rainwise IP-100,2013-08-28 20:32:00,
2013-08-28 15:37:00,85.2,71.0,29.01,NE,45,3.7,6.0,63,0.00,,,0.00,Rainwise IP-100,2013-08-28 20:37:00,
2013-08-28 15:42:00,85.2,71.0,29.02,NNE,22,3.3,4.0,64,0.00,,,0.00,Rainwise IP-100,2013-08-28 20:42:00,
2013-08-28 15:47:00,85.0,72.0,29.01,ENE,67,5.6,5.6,65,0.00,,,0.00,Rainwise IP-100,2013-08-28 20:47:00,
2013-08-28 15:52:00,84.6,71.0,29.01,East,90,7.9,7.9,65,0.00,,,0.00,Rainwise IP-100,2013-08-28 20:52:00,
2013-08-28 15:57:00,84.3,72.0,29.01,East,90,6.1,8.0,66,0.00,,,0.00,Rainwise IP-100,2013-08-28 20:57:00,
2013-08-28 16:02:00,84.1,71.0,29.01,East,90,5.1,7.0,66,0.00,,,0.00,Rainwise IP-100,2013-08-28 21:02:00,
2013-08-28 16:07:00,84.0,71.0,29.01,ENE,67,4.0,7.0,66,0.00,,,0.00,Rainwise IP-100,2013-08-28 21:07:00,
2013-08-28 16:12:00,84.0,72.0,29.01,East,90,6.3,6.3,67,0.00,,,0.00,Rainwise IP-100,2013-08-28 21:12:00,
2013-08-28 16:17:00,84.0,72.0,29.01,ESE,112,4.7,6.0,68,0.00,,,0.00,Rainwise IP-100,2013-08-28 21:17:00,
2013-08-28 16:22:00,84.0,72.0,29.00,ESE,112,6.8,8.0,67,0.00,,,0.00,Rainwise IP-100,2013-08-28 21:22:00,
2013-08-28 16:27:00,83.9,72.0,29.00,ESE,112,7.2,10.0,67,0.00,,,0.00,Rainwise IP-100,2013-08-28 21:27:00,
2013-08-28 16:32:00,83.8,72.0,29.00,ESE,112,6.5,9.0,68,0.00,,,0.00,Rainwise IP-100,2013-08-28 21:32:00,
2013-08-28 16:37:00,84.0,72.0,29.00,SE,135,3.0,7.0,67,0.00,,,0.00,Rainwise IP-100,2013-08-28 21:37:00,
2013-08-28 16:42:00,84.1,72.0,29.01,ESE,112,2.6,5.0,67,0.00,,,0.00,Rainwise IP-100,2013-08-28 21:42:00,
2013-08-28 16:47:00,84.0,72.0,29.01,SE,135,0.0,4.0,67,0.00,,,0.00,Rainwise IP-100,2013-08-28 21:47:00,
2013-08-28 16:52:00,84.1,72.0,29.01,SE,135,0.0,2.0,68,0.00,,,0.00,Rainwise IP-100,2013-08-28 21:52:00,
2013-08-28 16:57:00,84.3,73.0,29.01,SE,135,0.0,0.0,69,0.00,,,0.00,Rainwise IP-100,2013-08-28 21:57:00,
2013-08-28 17:02:00,84.4,73.0,29.02,SE,135,0.0,0.0,69,0.00,,,0.00,Rainwise IP-100,2013-08-28 22:02:00,
2013-08-28 17:07:00,84.3,73.0,29.02,WNW,292,1.9,1.9,69,0.00,,,0.00,Rainwise IP-100,2013-08-28 22:07:00,
2013-08-28 17:12:00,84.2,73.0,29.01,WNW,292,0.0,1.0,70,0.00,,,0.00,Rainwise IP-100,2013-08-28 22:12:00,
2013-08-28 17:17:00,83.9,73.0,29.01,ESE,112,1.6,3.0,71,0.00,,,0.00,Rainwise IP-100,2013-08-28 22:17:00,
2013-08-28 17:22:00,83.5,73.0,29.01,ESE,112,3.3,3.3,72,0.00,,,0.00,Rainwise IP-100,2013-08-28 22:22:00,
2013-08-28 17:27:00,83.1,73.0,29.01,ESE,112,2.1,3.0,72,0.00,,,0.00,Rainwise IP-100,2013-08-28 22:27:00,
2013-08-28 17:32:00,83.0,73.0,29.01,ESE,112,2.3,3.0,72,0.00,,,0.00,Rainwise IP-100,2013-08-28 22:32:00,
2013-08-28 17:37:00,82.9,73.0,29.01,ESE,112,2.3,3.0,72,0.00,,,0.00,Rainwise IP-100,2013-08-28 22:37:00,
2013-08-28 17:42:00,82.7,73.0,29.01,SE,135,2.1,3.0,73,0.00,,,0.00,Rainwise IP-100,2013-08-28 22:42:00,
2013-08-28 17:47:00,82.7,73.0,29.00,ESE,112,4.7,4.7,73,0.00,,,0.00,Rainwise IP-100,2013-08-28 22:47:00,
2013-08-28 17:52:00,83.1,73.0,29.01,East,90,2.1,5.0,72,0.00,,,0.00,Rainwise IP-100,2013-08-28 22:52:00,
2013-08-28 17:57:00,83.1,73.0,29.01,ENE,67,3.3,3.3,72,0.00,,,0.00,Rainwise IP-100,2013-08-28 22:57:00,
2013-08-28 18:02:00,83.0,73.0,29.01,ENE,67,3.7,4.0,74,0.00,,,0.00,Rainwise IP-100,2013-08-28 23:02:00,
2013-08-28 18:07:00,83.0,73.0,29.02,ENE,67,3.5,4.0,73,0.00,,,0.00,Rainwise IP-100,2013-08-28 23:07:00,
2013-08-28 18:12:00,83.1,73.0,29.01,ENE,67,4.0,4.0,72,0.00,,,0.00,Rainwise IP-100,2013-08-28 23:12:00,
2013-08-28 18:17:00,83.3,72.0,29.01,ENE,67,3.7,5.0,70,0.00,,,0.00,Rainwise IP-100,2013-08-28 23:17:00,
2013-08-28 18:22:00,83.3,72.0,29.01,East,90,4.2,4.2,69,0.00,,,0.00,Rainwise IP-100,2013-08-28 23:22:00,
2013-08-28 18:27:00,83.3,71.0,29.01,East,90,4.2,4.2,68,0.00,,,0.00,Rainwise IP-100,2013-08-28 23:27:00,
2013-08-28 18:32:00,83.3,71.0,29.01,ENE,67,4.0,5.0,68,0.00,,,0.00,Rainwise IP-100,2013-08-28 23:32:00,
2013-08-28 18:37:00,83.4,72.0,29.01,ESE,112,4.4,5.0,69,0.00,,,0.00,Rainwise IP-100,2013-08-28 23:37:00,
2013-08-28 18:42:00,83.2,72.0,29.01,ESE,112,4.2,5.0,70,0.00,,,0.00,Rainwise IP-100,2013-08-28 23:42:00,
2013-08-28 18:47:00,82.9,72.0,29.01,East,90,4.0,5.0,71,0.00,,,0.00,Rainwise IP-100,2013-08-28 23:47:00,
2013-08-28 18:52:00,82.8,72.0,29.01,ESE,112,5.1,6.0,72,0.00,,,0.00,Rainwise IP-100,2013-08-28 23:52:00,
2013-08-28 18:57:00,82.8,72.0,29.01,ESE,112,3.7,5.0,72,0.00,,,0.00,Rainwise IP-100,2013-08-28 23:57:00,
2013-08-28 19:02:00,82.7,73.0,29.01,ESE,112,4.7,5.0,73,0.00,,,0.00,Rainwise IP-100,2013-08-29 00:02:00,
2013-08-28 19:07:00,82.5,73.0,29.01,East,90,4.0,5.0,74,0.00,,,0.00,Rainwise IP-100,2013-08-29 00:07:00,
2013-08-28 19:12:00,82.4,73.0,29.01,ESE,112,4.9,5.0,75,0.00,,,0.00,Rainwise IP-100,2013-08-29 00:12:00,
2013-08-28 19:17:00,82.4,73.0,29.01,ESE,112,2.8,6.0,74,0.00,,,0.00,Rainwise IP-100,2013-08-29 00:17:00,
2013-08-28 19:22:00,82.5,73.0,29.01,SE,135,3.5,4.0,74,0.00,,,0.00,Rainwise IP-100,2013-08-29 00:22:00,
2013-08-28 19:27:00,82.5,73.0,29.01,SE,135,3.3,4.0,74,0.00,,,0.00,Rainwise IP-100,2013-08-29 00:27:00,
2013-08-28 19:32:00,82.5,73.0,29.01,ESE,112,6.5,7.0,74,0.00,,,0.00,Rainwise IP-100,2013-08-29 00:32:00,
2013-08-28 19:37:00,82.5,73.0,29.01,ESE,112,6.8,7.0,74,0.00,,,0.00,Rainwise IP-100,2013-08-29 00:37:00,
2013-08-28 19:42:00,82.5,73.0,29.01,ESE,112,5.8,7.0,73,0.00,,,0.00,Rainwise IP-100,2013-08-29 00:42:00,
2013-08-28 19:47:00,82.5,73.0,29.01,ESE,112,2.3,7.0,73,0.00,,,0.00,Rainwise IP-100,2013-08-29 00:47:00,
2013-08-28 19:52:00,82.4,73.0,29.02,ESE,112,3.7,6.0,74,0.00,,,0.00,Rainwise IP-100,2013-08-29 00:52:00,
2013-08-28 19:57:00,82.2,73.0,29.01,SE,135,3.3,5.0,74,0.00,,,0.00,Rainwise IP-100,2013-08-29 00:57:00,
2013-08-28 20:02:00,82.2,73.0,29.01,ESE,112,3.7,6.0,74,0.00,,,0.00,Rainwise IP-100,2013-08-29 01:02:00,
2013-08-28 20:07:00,82.1,73.0,29.02,ESE,112,3.5,6.0,75,0.00,,,0.00,Rainwise IP-100,2013-08-29 01:07:00,
2013-08-28 20:12:00,81.8,73.0,29.01,ESE,112,6.5,7.0,75,0.00,,,0.00,Rainwise IP-100,2013-08-29 01:12:00,
2013-08-28 20:17:00,81.8,73.0,29.01,ESE,112,9.1,9.1,75,0.00,,,0.00,Rainwise IP-100,2013-08-29 01:17:00,
2013-08-28 20:22:00,81.8,72.0,29.02,ESE,112,6.5,9.0,74,0.00,,,0.00,Rainwise IP-100,2013-08-29 01:22:00,
2013-08-28 20:27:00,81.6,72.0,29.02,ESE,112,4.0,8.0,74,0.00,,,0.00,Rainwise IP-100,2013-08-29 01:27:00,
2013-08-28 20:32:00,81.5,73.0,29.02,ESE,112,3.7,8.0,75,0.00,,,0.00,Rainwise IP-100,2013-08-29 01:32:00,
2013-08-28 20:37:00,81.5,73.0,29.02,ESE,112,4.2,6.0,76,0.00,,,0.00,Rainwise IP-100,2013-08-29 01:37:00,
2013-08-28 20:42:00,81.2,73.0,29.02,ESE,112,4.9,6.0,77,0.00,,,0.00,Rainwise IP-100,2013-08-29 01:42:00,
2013-08-28 20:47:00,81.0,73.0,29.02,East,90,3.3,6.0,77,0.00,,,0.00,Rainwise IP-100,2013-08-29 01:47:00,
2013-08-28 20:52:00,80.8,73.0,29.02,ESE,112,3.5,7.0,78,0.00,,,0.00,Rainwise IP-100,2013-08-29 01:52:00,
2013-08-28 20:57:00,80.8,73.0,29.02,SE,135,4.4,7.0,79,0.00,,,0.00,Rainwise IP-100,2013-08-29 01:57:00,
2013-08-28 21:02:00,80.8,73.0,29.02,ESE,112,6.8,7.0,79,0.00,,,0.00,Rainwise IP-100,2013-08-29 02:02:00,
2013-08-28 21:07:00,80.8,73.0,29.03,East,90,6.1,8.0,78,0.00,,,0.00,Rainwise IP-100,2013-08-29 02:07:00,
2013-08-28 21:12:00,80.7,73.0,29.02,ESE,112,6.5,9.0,78,0.00,,,0.00,Rainwise IP-100,2013-08-29 02:12:00,
2013-08-28 21:17:00,80.7,73.0,29.02,ESE,112,5.1,10.0,78,0.00,,,0.00,Rainwise IP-100,2013-08-29 02:17:00,
2013-08-28 21:22:00,80.7,73.0,29.02,ESE,112,8.2,10.0,78,0.00,,,0.00,Rainwise IP-100,2013-08-29 02:22:00,
2013-08-28 21:27:00,80.6,73.0,29.03,ESE,112,6.5,11.0,79,0.00,,,0.00,Rainwise IP-100,2013-08-29 02:27:00,
2013-08-28 21:32:00,80.6,73.0,29.03,ESE,112,5.4,12.0,79,0.00,,,0.00,Rainwise IP-100,2013-08-29 02:32:00,
2013-08-28 21:37:00,80.5,73.0,29.03,ESE,112,8.4,11.0,78,0.00,,,0.00,Rainwise IP-100,2013-08-29 02:37:00,
2013-08-28 21:42:00,80.5,73.0,29.03,SE,135,4.2,9.0,78,0.00,,,0.00,Rainwise IP-100,2013-08-29 02:42:00,
2013-08-28 21:47:00,80.5,73.0,29.03,ESE,112,4.4,10.0,78,0.00,,,0.00,Rainwise IP-100,2013-08-29 02:47:00,
2013-08-28 21:52:00,80.4,73.0,29.03,ESE,112,6.8,7.0,79,0.00,,,0.00,Rainwise IP-100,2013-08-29 02:52:00,
2013-08-28 21:57:00,80.2,73.0,29.03,ESE,112,4.7,7.0,80,0.00,,,0.00,Rainwise IP-100,2013-08-29 02:57:00,
2013-08-28 22:02:00,80.1,73.0,29.03,ESE,112,7.0,7.0,80,0.00,,,0.00,Rainwise IP-100,2013-08-29 03:02:00,
2013-08-28 22:07:00,80.0,73.0,29.02,ESE,112,8.4,9.0,80,0.00,,,0.00,Rainwise IP-100,2013-08-29 03:07:00,
2013-08-28 22:12:00,79.9,73.0,29.02,ESE,112,4.7,9.0,80,0.00,,,0.00,Rainwise IP-100,2013-08-29 03:12:00,
2013-08-28 22:17:00,79.8,73.0,29.03,ESE,112,8.6,9.0,80,0.00,,,0.00,Rainwise IP-100,2013-08-29 03:17:00,
2013-08-28 22:22:00,79.7,73.0,29.02,ESE,112,6.8,11.0,80,0.00,,,0.00,Rainwise IP-100,2013-08-29 03:22:00,
2013-08-28 22:27:00,79.7,73.0,29.03,ESE,112,8.4,9.0,80,0.00,,,0.00,Rainwise IP-100,2013-08-29 03:27:00,
2013-08-28 22:32:00,79.7,73.0,29.03,ESE,112,8.4,9.0,81,0.00,,,0.00,Rainwise IP-100,2013-08-29 03:32:00,
2013-08-28 22:37:00,79.6,73.0,29.02,ESE,112,5.1,11.0,81,0.00,,,0.00,Rainwise IP-100,2013-08-29 03:37:00,
2013-08-28 22:42:00,79.5,73.0,29.03,SE,135,3.7,10.0,81,0.00,,,0.00,Rainwise IP-100,2013-08-29 03:42:00,
2013-08-28 22:47:00,79.5,73.0,29.03,SE,135,3.7,8.0,81,0.00,,,0.00,Rainwise IP-100,2013-08-29 03:47:00,
2013-08-28 22:52:00,79.4,73.0,29.02,SE,135,4.2,7.0,82,0.00,,,0.00,Rainwise IP-100,2013-08-29 03:52:00,
2013-08-28 22:57:00,79.3,73.0,29.02,ESE,112,8.2,9.0,83,0.00,,,0.00,Rainwise IP-100,2013-08-29 03:57:00,
2013-08-28 23:01:00,79.3,73.0,29.03,ESE,112,4.2,8.0,83,0.00,,,0.00,Rainwise IP-100,2013-08-29 04:01:00,
2013-08-28 23:06:00,79.1,73.0,29.03,ESE,112,6.3,9.0,83,0.00,,,0.00,Rainwise IP-100,2013-08-29 04:06:00,
2013-08-28 23:11:00,78.9,73.0,29.02,ESE,112,9.1,9.1,82,0.00,,,0.00,Rainwise IP-100,2013-08-29 04:11:00,
2013-08-28 23:16:00,78.9,73.0,29.02,SE,135,5.8,9.0,83,0.00,,,0.00,Rainwise IP-100,2013-08-29 04:16:00,
2013-08-28 23:21:00,78.9,73.0,29.03,ESE,112,3.5,7.0,83,0.00,,,0.00,Rainwise IP-100,2013-08-29 04:21:00,
2013-08-28 23:26:00,78.8,73.0,29.03,SE,135,3.5,8.0,83,0.00,,,0.00,Rainwise IP-100,2013-08-29 04:26:00,
2013-08-28 23:31:00,78.8,73.0,29.03,SE,135,5.1,7.0,83,0.00,,,0.00,Rainwise IP-100,2013-08-29 04:31:00,
2013-08-28 23:36:00,78.7,73.0,29.03,SE,135,4.4,7.0,84,0.00,,,0.00,Rainwise IP-100,2013-08-29 04:36:00,
2013-08-28 23:41:00,78.6,73.0,29.03,SE,135,4.7,5.0,84,0.00,,,0.00,Rainwise IP-100,2013-08-29 04:41:00,
2013-08-28 23:46:00,78.5,73.0,29.03,SE,135,3.5,7.0,84,0.00,,,0.00,Rainwise IP-100,2013-08-29 04:46:00,
2013-08-28 23:51:00,78.4,73.0,29.03,SE,135,5.8,9.0,84,0.00,,,0.00,Rainwise IP-100,2013-08-29 04:51:00,
2013-08-28 23:56:00,78.2,73.0,29.03,SE,135,4.2,9.0,84,0.00,,,0.00,Rainwise IP-100,2013-08-29 04:56:00,